Location: Hobi?a Gr?di?te
(45.4833°N, 22.7833°E)
Time: 11:27:18
(UTC+00:00)

ISS - Pass Details

Date: 28 January 2023
Orbit: 414 x 423 km, 51.6° (Epoch: 01 April)

Event Time Altitude Azimuth Distance (km) Brightness Sun altitude
Rises 17:23:40 0° 298° (WNW) 2,431 1.0 -20.1°
Reaches altitude 10° 17:25:51 10° 304° (NW) 1,560 -0.2 -20.4°
Enters shadow 17:28:44 42° 351° (N) 643 -2.9 -20.9°
